Time,TemperatureF,DewpointF,PressureIn,WindDirection,WindDirectionDegrees,WindSpeedMPH,WindSpeedGustMPH,Humidity,HourlyPrecipIn,Conditions,Clouds,dailyrainin,SolarRadiationWatts/m^2,SoftwareType,DateUTC
2013-09-10 00:03:00,82.4,61.9,29.85,South,174,5.0,10.0,50,0.00,,---,0.00,0.00,VWS V14.01,2013-09-10 05:03:00,
2013-09-10 00:08:00,82.4,61.9,29.86,South,173,6.0,11.0,50,0.00,,---,0.00,0.00,VWS V14.01,2013-09-10 05:08:00,
2013-09-10 00:13:00,82.3,61.8,29.85,SSE,150,7.0,11.0,50,0.00,,---,0.00,0.00,VWS V14.01,2013-09-10 05:13:00,
2013-09-10 00:18:00,82.1,61.6,29.85,SSE,161,8.0,11.0,50,0.00,,---,0.00,0.00,VWS V14.01,2013-09-10 05:18:00,
2013-09-10 00:23:00,82.0,62.1,29.85,South,182,8.0,11.0,51,0.00,,---,0.00,0.00,VWS V14.01,2013-09-10 05:23:00,
2013-09-10 00:28:00,81.9,62.0,29.85,SE,140,5.0,11.0,51,0.00,,---,0.00,0.00,VWS V14.01,2013-09-10 05:28:00,
2013-09-10 00:33:00,81.9,62.0,29.85,SE,146,7.0,11.0,51,0.00,,---,0.00,0.00,VWS V14.01,2013-09-10 05:33:00,
2013-09-10 00:38:00,81.8,61.9,29.86,SSE,167,2.0,8.0,51,0.00,,---,0.00,0.00,VWS V14.01,2013-09-10 05:38:00,
2013-09-10 00:43:00,81.6,62.3,29.86,South,177,4.0,8.0,52,0.00,,---,0.00,0.00,VWS V14.01,2013-09-10 05:43:00,
2013-09-10 00:48:00,81.6,62.3,29.86,South,172,11.0,13.0,52,0.00,,---,0.00,0.00,VWS V14.01,2013-09-10 05:48:00,
2013-09-10 00:53:00,81.6,62.3,29.86,SSE,166,6.0,13.0,52,0.00,,---,0.00,0.00,VWS V14.01,2013-09-10 05:53:00,
2013-09-10 00:58:00,81.4,62.1,29.86,SE,138,5.0,13.0,52,0.00,,---,0.00,0.00,VWS V14.01,2013-09-10 05:58:00,
2013-09-10 01:03:00,81.3,62.0,29.86,SSE,161,6.0,13.0,52,0.00,,---,0.00,0.00,VWS V14.01,2013-09-10 06:03:00,
2013-09-10 05:01:00,76.5,64.3,29.90,South,173,7.0,7.0,66,0.00,,---,0.00,0.00,VWS V14.01,2013-09-10 10:01:00,
2013-09-10 05:06:00,76.4,64.2,29.90,South,171,4.0,7.0,66,0.00,,---,0.00,0.00,VWS V14.01,2013-09-10 10:06:00,
2013-09-10 05:11:00,76.3,64.1,29.91,SSE,150,5.0,11.0,66,0.00,,---,0.00,0.00,VWS V14.01,2013-09-10 10:11:00,
2013-09-10 05:16:00,76.2,64.0,29.90,SSE,161,7.0,11.0,66,0.00,,---,0.00,0.00,VWS V14.01,2013-09-10 10:16:00,
2013-09-10 05:21:00,76.1,63.9,29.91,SSE,157,7.0,11.0,66,0.00,,---,0.00,0.00,VWS V14.01,2013-09-10 10:21:00,
2013-09-10 05:26:00,76.0,63.8,29.91,SE,135,6.0,11.0,66,0.00,,---,0.00,0.00,VWS V14.01,2013-09-10 10:26:00,
2013-09-10 05:31:00,75.9,63.7,29.91,South,190,5.0,11.0,66,0.00,,---,0.00,0.00,VWS V14.01,2013-09-10 10:31:00,
2013-09-10 05:36:00,75.8,64.1,29.91,SSE,161,5.0,11.0,67,0.00,,---,0.00,0.00,VWS V14.01,2013-09-10 10:36:00,
2013-09-10 05:41:00,75.7,64.0,29.91,SSE,158,5.0,11.0,67,0.00,,---,0.00,0.00,VWS V14.01,2013-09-10 10:41:00,
2013-09-10 05:46:00,75.6,63.9,29.91,SSE,165,3.0,11.0,67,0.00,,---,0.00,0.00,VWS V14.01,2013-09-10 10:46:00,
2013-09-10 05:51:00,75.5,63.8,29.91,South,169,5.0,11.0,67,0.00,,---,0.00,0.00,VWS V14.01,2013-09-10 10:51:00,
2013-09-10 05:56:00,75.3,64.0,29.91,SSE,149,3.0,11.0,68,0.00,,---,0.00,0.00,VWS V14.01,2013-09-10 10:56:00,
2013-09-10 06:01:00,74.9,63.6,29.92,SSE,166,5.0,11.0,68,0.00,,---,0.00,0.00,VWS V14.01,2013-09-10 11:01:00,
2013-09-10 06:06:00,74.6,63.8,29.92,SSE,158,5.0,8.0,69,0.00,,---,0.00,0.00,VWS V14.01,2013-09-10 11:06:00,
2013-09-10 06:11:00,74.4,63.6,29.92,SSE,158,4.0,8.0,69,0.00,,---,0.00,0.00,VWS V14.01,2013-09-10 11:11:00,
2013-09-10 06:16:00,74.2,63.4,29.92,SSE,161,5.0,8.0,69,0.00,,---,0.00,0.00,VWS V14.01,2013-09-10 11:16:00,
2013-09-10 06:21:00,74.0,63.6,29.92,SE,138,5.0,8.0,70,0.00,,---,0.00,0.00,VWS V14.01,2013-09-10 11:21:00,
2013-09-10 06:27:00,73.8,63.4,29.92,SE,146,5.0,5.0,70,0.00,,---,0.00,0.00,VWS V14.01,2013-09-10 11:27:00,
2013-09-10 06:32:00,73.6,63.2,29.92,SE,143,7.0,7.0,70,0.00,,---,0.00,0.00,VWS V14.01,2013-09-10 11:32:00,
2013-09-10 06:37:00,73.4,63.4,29.92,SSE,161,4.0,6.0,71,0.00,,---,0.00,0.00,VWS V14.01,2013-09-10 11:37:00,
2013-09-10 06:42:00,73.3,63.3,29.92,SSE,153,3.0,6.0,71,0.00,,---,0.00,0.00,VWS V14.01,2013-09-10 11:42:00,
2013-09-10 06:47:00,73.1,63.2,29.93,SSE,161,2.0,6.0,71,0.00,,---,0.00,0.00,VWS V14.01,2013-09-10 11:47:00,
2013-09-10 06:52:00,72.9,63.0,29.93,South,171,3.0,6.0,71,0.00,,---,0.00,0.00,VWS V14.01,2013-09-10 11:52:00,
2013-09-10 06:57:00,72.6,63.1,29.93,South,175,5.0,6.0,72,0.00,,---,0.00,0.00,VWS V14.01,2013-09-10 11:57:00,
2013-09-10 07:03:00,72.6,63.1,29.93,SSE,162,3.0,6.0,72,0.00,,---,0.00,0.00,VWS V14.01,2013-09-10 12:03:00,
2013-09-10 07:08:00,72.5,63.4,29.93,SSE,158,1.0,3.0,73,0.00,,---,0.00,0.00,VWS V14.01,2013-09-10 12:08:00,
2013-09-10 07:13:00,72.4,63.3,29.94,SSE,166,2.0,5.0,73,0.00,,---,0.00,0.00,VWS V14.01,2013-09-10 12:13:00,
2013-09-10 07:18:00,72.3,63.2,29.94,SSE,158,2.0,5.0,73,0.00,,---,0.00,0.00,VWS V14.01,2013-09-10 12:18:00,
2013-09-10 07:23:00,72.3,63.2,29.94,SSE,150,2.0,5.0,73,0.00,,---,0.00,5.00,VWS V14.01,2013-09-10 12:23:00,
2013-09-10 07:28:00,72.2,63.1,29.94,SSE,163,2.0,5.0,73,0.00,,---,0.00,7.00,VWS V14.01,2013-09-10 12:28:00,
2013-09-10 07:33:00,72.2,63.5,29.94,SSE,159,4.0,5.0,74,0.00,,---,0.00,11.00,VWS V14.01,2013-09-10 12:33:00,
2013-09-10 07:38:00,72.2,63.5,29.95,SSE,163,2.0,3.0,74,0.00,,---,0.00,14.00,VWS V14.01,2013-09-10 12:38:00,
2013-09-10 07:43:00,72.3,63.6,29.95,SE,146,2.0,3.0,74,0.00,,---,0.00,14.00,VWS V14.01,2013-09-10 12:43:00,
2013-09-10 07:48:00,72.4,63.7,29.95,ESE,113,1.0,5.0,74,0.00,,---,0.00,18.00,VWS V14.01,2013-09-10 12:48:00,
2013-09-10 07:53:00,72.5,63.8,29.95,ESE,123,3.0,5.0,74,0.00,,---,0.00,26.00,VWS V14.01,2013-09-10 12:53:00,
2013-09-10 07:57:00,72.6,63.8,29.95,ESE,103,2.0,5.0,74,0.00,,---,0.00,69.00,VWS V14.01,2013-09-10 12:57:00,
2013-09-10 08:02:00,73.0,64.2,29.96,SSE,163,2.0,6.0,74,0.00,,---,0.00,93.00,VWS V14.01,2013-09-10 13:02:00,
2013-09-10 08:07:00,73.7,64.5,29.96,South,184,2.0,7.0,73,0.00,,---,0.00,120.00,VWS V14.01,2013-09-10 13:07:00,
2013-09-10 08:12:00,74.3,64.7,29.96,SSE,152,5.0,7.0,72,0.00,,---,0.00,144.00,VWS V14.01,2013-09-10 13:12:00,
2013-09-10 08:17:00,74.9,64.9,29.96,East,98,3.0,10.0,71,0.00,,---,0.00,144.00,VWS V14.01,2013-09-10 13:17:00,
2013-09-10 08:23:00,75.3,64.8,29.96,South,176,6.0,11.0,70,0.00,,---,0.00,176.00,VWS V14.01,2013-09-10 13:23:00,
2013-09-10 08:28:00,75.5,65.0,29.97,SSE,167,6.0,11.0,70,0.00,,---,0.00,192.00,VWS V14.01,2013-09-10 13:28:00,
2013-09-10 08:33:00,75.7,64.8,29.97,South,170,9.0,11.0,69,0.00,,---,0.00,209.00,VWS V14.01,2013-09-10 13:33:00,
2013-09-10 08:38:00,75.9,65.0,29.97,SSE,165,6.0,11.0,69,0.00,,---,0.00,70.00,VWS V14.01,2013-09-10 13:38:00,
2013-09-10 08:43:00,75.9,65.0,29.97,SSE,167,3.0,11.0,69,0.00,,---,0.00,42.00,VWS V14.01,2013-09-10 13:43:00,
2013-09-10 08:48:00,75.6,64.7,29.97,SSE,167,6.0,11.0,69,0.00,,---,0.00,42.00,VWS V14.01,2013-09-10 13:48:00,
2013-09-10 08:53:00,75.4,64.9,29.97,South,176,5.0,11.0,70,0.00,,---,0.00,54.00,VWS V14.01,2013-09-10 13:53:00,
2013-09-10 08:58:00,75.5,65.0,29.97,South,186,6.0,11.0,70,0.00,,---,0.00,274.00,VWS V14.01,2013-09-10 13:58:00,
2013-09-10 09:03:00,76.0,65.5,29.97,South,171,10.0,12.0,70,0.00,,---,0.00,65.00,VWS V14.01,2013-09-10 14:03:00,
2013-09-10 09:08:00,75.8,65.3,29.98,SSE,164,8.0,12.0,70,0.00,,---,0.00,67.00,VWS V14.01,2013-09-10 14:08:00,
2013-09-10 09:13:00,75.7,65.2,29.98,South,174,6.0,12.0,70,0.00,,---,0.00,97.00,VWS V14.01,2013-09-10 14:13:00,
2013-09-10 09:18:00,75.8,65.3,29.98,SE,132,2.0,12.0,70,0.00,,---,0.00,144.00,VWS V14.01,2013-09-10 14:18:00,
2013-09-10 09:23:00,76.0,65.5,29.99,South,175,5.0,12.0,70,0.00,,---,0.00,160.00,VWS V14.01,2013-09-10 14:23:00,
2013-09-10 09:28:00,76.4,65.9,29.99,SE,142,3.0,12.0,70,0.00,,---,0.00,169.00,VWS V14.01,2013-09-10 14:28:00,
2013-09-10 09:33:00,77.4,66.4,29.99,SSE,167,7.0,12.0,69,0.00,,---,0.00,513.00,VWS V14.01,2013-09-10 14:33:00,
2013-09-10 09:38:00,78.3,66.9,29.99,South,180,4.0,12.0,68,0.00,,---,0.00,232.00,VWS V14.01,2013-09-10 14:38:00,
2013-09-10 09:43:00,78.7,66.8,29.99,SSE,163,4.0,14.0,67,0.00,,---,0.00,455.00,VWS V14.01,2013-09-10 14:43:00,
2013-09-10 09:48:00,79.2,66.9,29.99,SSE,153,8.0,16.0,66,0.00,,---,0.00,457.00,VWS V14.01,2013-09-10 14:48:00,
2013-09-10 09:53:00,79.4,67.1,29.99,SSE,157,9.0,16.0,66,0.00,,---,0.00,464.00,VWS V14.01,2013-09-10 14:53:00,
2013-09-10 09:58:00,79.5,67.2,29.99,SSE,168,4.0,16.0,66,0.00,,---,0.00,476.00,VWS V14.01,2013-09-10 14:58:00,
2013-09-10 10:03:00,80.0,67.2,29.99,South,173,9.0,16.0,65,0.00,,---,0.00,492.00,VWS V14.01,2013-09-10 15:03:00,
2013-09-10 10:08:00,80.5,67.2,29.99,East,96,9.0,17.0,64,0.00,,---,0.00,510.00,VWS V14.01,2013-09-10 15:08:00,
2013-09-10 10:13:00,80.6,67.3,29.99,SSE,165,10.0,18.0,64,0.00,,---,0.00,526.00,VWS V14.01,2013-09-10 15:13:00,
2013-09-10 10:18:00,81.1,67.3,29.99,SSE,165,11.0,18.0,63,0.00,,---,0.00,541.00,VWS V14.01,2013-09-10 15:18:00,
2013-09-10 10:23:00,81.4,67.6,29.99,SE,142,7.0,18.0,63,0.00,,---,0.00,563.00,VWS V14.01,2013-09-10 15:23:00,
2013-09-10 10:28:00,81.8,67.1,30.00,South,169,6.0,18.0,61,0.00,,---,0.00,577.00,VWS V14.01,2013-09-10 15:28:00,
2013-09-10 11:24:00,85.1,67.1,30.00,SSE,159,10.0,10.0,55,0.00,,---,0.00,754.00,VWS V14.01,2013-09-10 16:24:00,
2013-09-10 11:29:00,85.5,66.4,30.00,SSE,168,10.0,14.0,53,0.00,,---,0.00,796.00,VWS V14.01,2013-09-10 16:29:00,
2013-09-10 11:34:00,85.0,66.5,30.00,South,184,8.0,16.0,54,0.00,,---,0.00,744.00,VWS V14.01,2013-09-10 16:34:00,
2013-09-10 11:39:00,85.9,65.7,30.00,SSE,153,8.0,14.0,51,0.00,,---,0.00,835.00,VWS V14.01,2013-09-10 16:39:00,
2013-09-10 11:44:00,86.4,66.7,30.00,SSE,166,4.0,15.0,52,0.00,,---,0.00,870.00,VWS V14.01,2013-09-10 16:44:00,
2013-09-10 11:49:00,86.4,66.7,30.00,East,89,6.0,16.0,52,0.00,,---,0.00,821.00,VWS V14.01,2013-09-10 16:49:00,
2013-09-10 11:54:00,86.6,66.3,30.00,SSE,154,14.0,16.0,51,0.00,,---,0.00,823.00,VWS V14.01,2013-09-10 16:54:00,
2013-09-10 11:59:00,86.4,66.2,30.00,SSE,158,6.0,18.0,51,0.00,,---,0.00,798.00,VWS V14.01,2013-09-10 16:59:00,
2013-09-10 12:04:00,86.9,66.0,29.99,SE,138,5.0,18.0,50,0.00,,---,0.00,798.00,VWS V14.01,2013-09-10 17:04:00,
2013-09-10 12:09:00,87.6,66.7,29.99,ESE,117,5.0,16.0,50,0.00,,---,0.00,803.00,VWS V14.01,2013-09-10 17:09:00,
2013-09-10 12:14:00,88.1,66.6,29.99,ESE,117,5.0,16.0,49,0.00,,---,0.00,830.00,VWS V14.01,2013-09-10 17:14:00,
2013-09-10 12:19:00,88.3,66.7,29.99,SE,137,2.0,16.0,49,0.00,,---,0.00,867.00,VWS V14.01,2013-09-10 17:19:00,
2013-09-10 12:24:00,88.7,65.3,29.99,South,176,7.0,17.0,46,0.00,,---,0.00,675.00,VWS V14.01,2013-09-10 17:24:00,
2013-09-10 12:29:00,89.0,66.2,29.99,SSE,152,8.0,17.0,47,0.00,,---,0.00,879.00,VWS V14.01,2013-09-10 17:29:00,
2013-09-10 12:34:00,88.5,65.7,29.99,South,179,9.0,18.0,47,0.00,,---,0.00,888.00,VWS V14.01,2013-09-10 17:34:00,
2013-09-10 12:39:00,88.2,66.1,29.98,South,173,6.0,14.0,48,0.00,,---,0.00,904.00,VWS V14.01,2013-09-10 17:39:00,
2013-09-10 12:44:00,88.6,65.8,29.98,SSE,168,13.0,14.0,47,0.00,,---,0.00,858.00,VWS V14.01,2013-09-10 17:44:00,
2013-09-10 12:49:00,88.7,65.3,29.98,SE,133,9.0,18.0,46,0.00,,---,0.00,932.00,VWS V14.01,2013-09-10 17:49:00,
2013-09-10 12:54:00,89.4,65.3,29.98,SSE,148,14.0,18.0,45,0.00,,---,0.00,926.00,VWS V14.01,2013-09-10 17:54:00,
2013-09-10 12:59:00,89.0,65.6,29.98,South,186,8.0,20.0,46,0.00,,---,0.00,960.00,VWS V14.01,2013-09-10 17:59:00,
2013-09-10 13:04:00,88.5,66.3,29.98,East,94,11.0,20.0,48,0.00,,---,0.00,976.00,VWS V14.01,2013-09-10 18:04:00,
2013-09-10 13:09:00,89.1,65.6,29.98,SSE,153,9.0,18.0,46,0.00,,---,0.00,972.00,VWS V14.01,2013-09-10 18:09:00,
2013-09-10 13:14:00,89.9,65.7,29.98,SE,129,8.0,18.0,45,0.00,,---,0.00,220.00,VWS V14.01,2013-09-10 18:14:00,
2013-09-10 13:19:00,88.8,65.4,29.98,SSE,153,5.0,18.0,46,0.00,,---,0.00,213.00,VWS V14.01,2013-09-10 18:19:00,
2013-09-10 13:24:00,88.6,65.8,29.98,SE,127,3.0,18.0,47,0.00,,---,0.00,930.00,VWS V14.01,2013-09-10 18:24:00,
2013-09-10 13:29:00,89.1,65.0,29.97,SE,134,5.0,24.0,45,0.00,,---,0.00,933.00,VWS V14.01,2013-09-10 18:29:00,
2013-09-10 13:34:00,89.5,65.4,29.97,ESE,113,5.0,24.0,45,0.00,,---,0.00,227.00,VWS V14.01,2013-09-10 18:34:00,
2013-09-10 13:39:00,89.8,65.6,29.97,ESE,122,4.0,17.0,45,0.00,,---,0.00,947.00,VWS V14.01,2013-09-10 18:39:00,
2013-09-10 13:44:00,90.3,66.1,29.97,ESE,112,12.0,17.0,45,0.00,,---,0.00,274.00,VWS V14.01,2013-09-10 18:44:00,
2013-09-10 13:49:00,90.3,66.1,29.97,SE,140,9.0,17.0,45,0.00,,---,0.00,248.00,VWS V14.01,2013-09-10 18:49:00,
2013-09-10 13:54:00,90.5,65.6,29.97,ESE,123,2.0,18.0,44,0.00,,---,0.00,988.00,VWS V14.01,2013-09-10 18:54:00,
2013-09-10 13:59:00,91.4,65.8,29.97,ESE,123,2.0,21.0,43,0.00,,---,0.00,937.00,VWS V14.01,2013-09-10 18:59:00,
2013-09-10 14:04:00,91.7,65.4,29.97,South,171,10.0,21.0,42,0.00,,---,0.00,916.00,VWS V14.01,2013-09-10 19:04:00,
2013-09-10 14:09:00,90.5,65.0,29.96,SE,136,5.0,15.0,43,0.00,,---,0.00,225.00,VWS V14.01,2013-09-10 19:09:00,
2013-09-10 14:14:00,90.4,65.5,29.96,ESE,115,11.0,16.0,44,0.00,,---,0.00,923.00,VWS V14.01,2013-09-10 19:14:00,
2013-09-10 14:18:00,90.6,65.1,29.95,South,177,6.0,16.0,43,0.00,,---,0.00,186.00,VWS V14.01,2013-09-10 19:18:00,
2013-09-10 14:23:00,90.5,65.0,29.95,South,177,7.0,16.0,43,0.00,,---,0.00,930.00,VWS V14.01,2013-09-10 19:23:00,
2013-09-10 14:28:00,91.0,65.4,29.95,South,186,18.0,18.0,43,0.00,,---,0.00,912.00,VWS V14.01,2013-09-10 19:28:00,
2013-09-10 14:33:00,91.7,65.4,29.95,South,190,5.0,21.0,42,0.00,,---,0.00,976.00,VWS V14.01,2013-09-10 19:33:00,
2013-09-10 14:38:00,92.7,64.9,29.95,SE,128,5.0,15.0,40,0.00,,---,0.00,902.00,VWS V14.01,2013-09-10 19:38:00,
2013-09-10 14:43:00,92.2,64.4,29.95,SSE,154,11.0,17.0,40,0.00,,---,0.00,169.00,VWS V14.01,2013-09-10 19:43:00,
2013-09-10 14:48:00,91.6,65.3,29.95,South,171,11.0,17.0,42,0.00,,---,0.00,898.00,VWS V14.01,2013-09-10 19:48:00,
2013-09-10 14:53:00,91.1,64.1,29.94,ESE,122,15.0,17.0,41,0.00,,---,0.00,192.00,VWS V14.01,2013-09-10 19:53:00,
2013-09-10 14:58:00,91.9,64.2,29.94,SSE,157,8.0,17.0,40,0.00,,---,0.00,833.00,VWS V14.01,2013-09-10 19:58:00,
2013-09-10 15:03:00,92.2,64.4,29.94,South,175,14.0,17.0,40,0.00,,---,0.00,234.00,VWS V14.01,2013-09-10 20:03:00,
2013-09-10 15:08:00,91.3,64.3,29.94,SSE,159,4.0,19.0,41,0.00,,---,0.00,823.00,VWS V14.01,2013-09-10 20:08:00,
2013-09-10 15:13:00,91.7,65.4,29.93,SSE,149,9.0,19.0,42,0.00,,---,0.00,826.00,VWS V14.01,2013-09-10 20:13:00,
2013-09-10 15:18:00,92.2,65.1,29.93,SSE,163,11.0,19.0,41,0.00,,---,0.00,824.00,VWS V14.01,2013-09-10 20:18:00,
2013-09-10 15:23:00,92.0,64.9,29.93,ESE,105,5.0,20.0,41,0.00,,---,0.00,810.00,VWS V14.01,2013-09-10 20:23:00,
2013-09-10 15:28:00,92.1,65.0,29.93,SSE,150,6.0,20.0,41,0.00,,---,0.00,165.00,VWS V14.01,2013-09-10 20:28:00,
2013-09-10 15:33:00,91.7,64.0,29.92,SSE,150,5.0,20.0,40,0.00,,---,0.00,780.00,VWS V14.01,2013-09-10 20:33:00,
2013-09-10 15:38:00,92.2,64.4,29.92,SSE,163,10.0,16.0,40,0.00,,---,0.00,434.00,VWS V14.01,2013-09-10 20:38:00,
2013-09-10 15:43:00,92.0,64.2,29.92,SE,139,9.0,18.0,40,0.00,,---,0.00,816.00,VWS V14.01,2013-09-10 20:43:00,
2013-09-10 16:06:00,93.3,65.4,29.91,SSE,162,8.0,8.0,40,0.00,,---,0.00,691.00,VWS V14.01,2013-09-10 21:06:00,
2013-09-10 16:11:00,93.3,63.9,29.91,ENE,61,5.0,13.0,38,0.00,,---,0.00,814.00,VWS V14.01,2013-09-10 21:11:00,
2013-09-10 16:16:00,93.7,65.0,29.91,East,99,10.0,16.0,39,0.00,,---,0.00,779.00,VWS V14.01,2013-09-10 21:16:00,
2013-09-10 16:21:00,93.7,64.3,29.91,South,171,19.0,19.0,38,0.00,,---,0.00,788.00,VWS V14.01,2013-09-10 21:21:00,
2013-09-10 16:26:00,93.7,65.0,29.90,SSE,150,13.0,21.0,39,0.00,,---,0.00,742.00,VWS V14.01,2013-09-10 21:26:00,
2013-09-10 16:31:00,92.8,64.9,29.90,East,100,2.0,21.0,40,0.00,,---,0.00,232.00,VWS V14.01,2013-09-10 21:31:00,
2013-09-10 16:36:00,92.2,65.1,29.90,SSE,157,3.0,10.0,41,0.00,,---,0.00,169.00,VWS V14.01,2013-09-10 21:36:00,
2013-09-10 16:41:00,91.6,64.6,29.90,ESE,121,4.0,11.0,41,0.00,,---,0.00,139.00,VWS V14.01,2013-09-10 21:41:00,
2013-09-10 16:46:00,90.2,66.0,29.91,SSE,153,8.0,29.0,45,0.00,,---,0.00,153.00,VWS V14.01,2013-09-10 21:46:00,
2013-09-10 16:51:00,84.6,69.7,29.92,SE,146,6.0,29.0,61,0.04,,---,0.04,315.00,VWS V14.01,2013-09-10 21:51:00,
2013-09-10 16:56:00,81.6,69.2,29.91,East,88,8.0,29.0,66,0.09,,---,0.09,327.00,VWS V14.01,2013-09-10 21:56:00,
2013-09-10 17:01:00,80.5,69.4,29.90,ENE,64,7.0,29.0,69,0.09,,---,0.09,680.00,VWS V14.01,2013-09-10 22:01:00,
2013-09-10 17:06:00,81.2,71.7,29.90,South,188,3.0,8.0,73,0.09,,---,0.09,680.00,VWS V14.01,2013-09-10 22:06:00,
2013-09-10 17:11:00,82.3,70.3,29.90,SSE,161,6.0,9.0,67,0.09,,---,0.09,686.00,VWS V14.01,2013-09-10 22:11:00,
2013-09-10 17:16:00,84.2,69.8,29.90,SE,140,7.0,14.0,62,0.09,,---,0.09,666.00,VWS V14.01,2013-09-10 22:16:00,
2013-09-10 17:21:00,86.0,69.5,29.90,South,169,6.0,14.0,58,0.09,,---,0.09,564.00,VWS V14.01,2013-09-10 22:21:00,
2013-09-10 17:26:00,87.1,69.5,29.90,South,191,5.0,15.0,56,0.10,,---,0.10,584.00,VWS V14.01,2013-09-10 22:26:00,
2013-09-10 17:31:00,88.1,69.4,29.90,SSE,157,4.0,15.0,54,0.10,,---,0.10,596.00,VWS V14.01,2013-09-10 22:31:00,
2013-09-10 17:36:00,88.6,67.0,29.90,SSE,167,15.0,17.0,49,0.10,,---,0.10,564.00,VWS V14.01,2013-09-10 22:36:00,
2013-09-10 17:41:00,89.0,66.8,29.90,SSE,153,8.0,17.0,48,0.10,,---,0.10,519.00,VWS V14.01,2013-09-10 22:41:00,
2013-09-10 17:46:00,89.2,67.6,29.90,SSE,161,8.0,17.0,49,0.10,,---,0.10,459.00,VWS V14.01,2013-09-10 22:46:00,
2013-09-10 17:51:00,89.0,66.8,29.90,SE,131,12.0,18.0,48,0.10,,---,0.10,434.00,VWS V14.01,2013-09-10 22:51:00,
2013-09-10 17:56:00,88.7,66.5,29.90,SSE,153,10.0,18.0,48,0.10,,---,0.10,404.00,VWS V14.01,2013-09-10 22:56:00,
2013-09-10 18:01:00,88.6,67.0,29.90,South,182,12.0,18.0,49,0.10,,---,0.10,86.00,VWS V14.01,2013-09-10 23:01:00,
2013-09-10 18:06:00,88.0,67.1,29.90,SSW,193,5.0,9.0,50,0.01,,---,0.10,167.00,VWS V14.01,2013-09-10 23:06:00,
2013-09-10 18:11:00,87.4,66.5,29.90,South,173,5.0,10.0,50,0.01,,---,0.10,141.00,VWS V14.01,2013-09-10 23:11:00,
2013-09-10 18:16:00,87.0,66.7,29.90,South,186,5.0,12.0,51,0.01,,---,0.10,279.00,VWS V14.01,2013-09-10 23:16:00,
2013-09-10 18:21:00,87.1,66.8,29.90,South,177,7.0,12.0,51,0.01,,---,0.10,265.00,VWS V14.01,2013-09-10 23:21:00,
2013-09-10 18:26:00,87.5,66.6,29.90,South,183,6.0,13.0,50,0.01,,---,0.10,243.00,VWS V14.01,2013-09-10 23:26:00,
2013-09-10 18:31:00,87.7,67.3,29.90,South,190,4.0,13.0,51,0.01,,---,0.10,220.00,VWS V14.01,2013-09-10 23:31:00,
2013-09-10 18:36:00,87.7,66.8,29.90,SSE,164,5.0,13.0,50,0.00,,---,0.10,199.00,VWS V14.01,2013-09-10 23:36:00,
2013-09-10 18:41:00,87.6,66.1,29.90,South,188,8.0,13.0,49,0.00,,---,0.10,176.00,VWS V14.01,2013-09-10 23:41:00,
2013-09-10 18:46:00,87.5,66.6,29.90,South,182,11.0,13.0,50,0.00,,---,0.10,155.00,VWS V14.01,2013-09-10 23:46:00,
2013-09-10 18:51:00,87.5,66.6,29.90,SSE,148,7.0,13.0,50,0.00,,---,0.10,134.00,VWS V14.01,2013-09-10 23:51:00,
2013-09-10 18:56:00,87.6,65.5,29.90,South,174,8.0,13.0,48,0.00,,---,0.10,116.00,VWS V14.01,2013-09-10 23:56:00,
2013-09-10 19:01:00,87.6,65.5,29.90,SSE,154,5.0,13.0,48,0.00,,---,0.10,97.00,VWS V14.01,2013-09-11 00:01:00,
2013-09-10 19:06:00,87.5,65.4,29.90,SSE,162,5.0,10.0,48,0.00,,---,0.10,77.00,VWS V14.01,2013-09-11 00:06:00,
2013-09-10 19:11:00,87.5,66.0,29.90,SSE,166,7.0,11.0,49,0.00,,---,0.10,60.00,VWS V14.01,2013-09-11 00:11:00,
2013-09-10 19:16:00,87.4,65.3,29.90,South,181,6.0,11.0,48,0.00,,---,0.10,46.00,VWS V14.01,2013-09-11 00:16:00,
2013-09-10 19:21:00,87.3,65.8,29.90,South,173,5.0,11.0,49,0.00,,---,0.10,28.00,VWS V14.01,2013-09-11 00:21:00,
2013-09-10 19:26:00,87.1,65.1,29.90,SSE,157,7.0,11.0,48,0.00,,---,0.10,21.00,VWS V14.01,2013-09-11 00:26:00,
2013-09-10 19:31:00,86.9,65.5,29.90,SSE,156,6.0,11.0,49,0.00,,---,0.10,14.00,VWS V14.01,2013-09-11 00:31:00,
2013-09-10 19:36:00,86.7,65.3,29.90,South,180,6.0,13.0,49,0.00,,---,0.10,12.00,VWS V14.01,2013-09-11 00:36:00,
2013-09-10 19:41:00,86.6,65.2,29.90,South,188,5.0,13.0,49,0.00,,---,0.10,9.00,VWS V14.01,2013-09-11 00:41:00,
2013-09-10 19:46:00,86.3,64.9,29.90,SSE,163,4.0,13.0,49,0.00,,---,0.10,5.00,VWS V14.01,2013-09-11 00:46:00,
2013-09-10 19:51:00,86.1,64.7,29.91,SSE,166,5.0,13.0,49,0.00,,---,0.10,0.00,VWS V14.01,2013-09-11 00:51:00,
2013-09-10 19:56:00,85.8,65.0,29.91,South,171,3.0,13.0,50,0.00,,---,0.10,0.00,VWS V14.01,2013-09-11 00:56:00,
2013-09-10 20:01:00,85.5,64.8,29.91,South,174,3.0,13.0,50,0.00,,---,0.10,0.00,VWS V14.01,2013-09-11 01:01:00,
2013-09-10 20:06:00,85.3,65.1,29.91,SSE,159,4.0,4.0,51,0.00,,---,0.10,0.00,VWS V14.01,2013-09-11 01:06:00,
2013-09-10 20:11:00,85.1,65.0,29.91,SSW,194,3.0,5.0,51,0.00,,---,0.10,0.00,VWS V14.01,2013-09-11 01:11:00,
2013-09-10 20:16:00,84.8,64.7,29.91,South,186,2.0,5.0,51,0.00,,---,0.10,0.00,VWS V14.01,2013-09-11 01:16:00,
2013-09-10 20:21:00,84.6,65.1,29.92,South,185,3.0,5.0,52,0.00,,---,0.10,0.00,VWS V14.01,2013-09-11 01:21:00,
2013-09-10 20:26:00,84.4,64.9,29.92,South,185,2.0,5.0,52,0.00,,---,0.10,0.00,VWS V14.01,2013-09-11 01:26:00,
2013-09-10 20:31:00,84.2,65.2,29.92,South,185,2.0,5.0,53,0.00,,---,0.10,0.00,VWS V14.01,2013-09-11 01:31:00,
2013-09-10 20:36:00,84.0,65.1,29.92,South,185,1.0,2.0,53,0.00,,---,0.10,0.00,VWS V14.01,2013-09-11 01:36:00,
2013-09-10 20:41:00,83.8,65.4,29.92,South,185,1.0,2.0,54,0.00,,---,0.10,0.00,VWS V14.01,2013-09-11 01:41:00,
2013-09-10 20:46:00,83.6,65.7,29.92,South,185,1.0,2.0,55,0.00,,---,0.10,0.00,VWS V14.01,2013-09-11 01:46:00,
2013-09-10 20:51:00,83.4,65.6,29.93,South,185,1.0,2.0,55,0.00,,---,0.10,0.00,VWS V14.01,2013-09-11 01:51:00,
2013-09-10 20:56:00,83.2,66.4,29.93,South,185,1.0,2.0,57,0.00,,---,0.10,0.00,VWS V14.01,2013-09-11 01:56:00,
2013-09-10 21:01:00,82.9,66.1,29.93,South,185,0.0,2.0,57,0.00,,---,0.10,0.00,VWS V14.01,2013-09-11 02:01:00,
2013-09-10 21:06:00,82.8,68.0,29.93,South,185,1.0,1.0,61,0.00,,---,0.10,0.00,VWS V14.01,2013-09-11 02:06:00,
2013-09-10 21:11:00,82.5,68.6,29.94,South,185,0.0,2.0,63,0.00,,---,0.10,0.00,VWS V14.01,2013-09-11 02:11:00,
2013-09-10 21:16:00,82.0,68.6,29.94,South,185,0.0,2.0,64,0.00,,---,0.10,0.00,VWS V14.01,2013-09-11 02:16:00,
2013-09-10 21:21:00,81.4,68.5,29.94,South,185,1.0,2.0,65,0.00,,---,0.10,0.00,VWS V14.01,2013-09-11 02:21:00,
2013-09-10 21:26:00,81.0,68.6,29.94,South,185,0.0,2.0,66,0.00,,---,0.10,0.00,VWS V14.01,2013-09-11 02:26:00,
2013-09-10 21:31:00,80.7,68.7,29.94,South,185,0.0,2.0,67,0.00,,---,0.10,0.00,VWS V14.01,2013-09-11 02:31:00,
2013-09-10 21:36:00,80.5,68.5,29.95,South,185,1.0,1.0,67,0.00,,---,0.10,0.00,VWS V14.01,2013-09-11 02:36:00,
2013-09-10 21:41:00,80.0,68.9,29.95,South,185,2.0,2.0,69,0.00,,---,0.10,0.00,VWS V14.01,2013-09-11 02:41:00,
2013-09-10 21:46:00,79.3,67.4,29.95,SE,140,3.0,6.0,67,0.00,,---,0.10,0.00,VWS V14.01,2013-09-11 02:46:00,
2013-09-10 21:51:00,79.2,66.9,29.95,SE,137,1.0,6.0,66,0.00,,---,0.10,0.00,VWS V14.01,2013-09-11 02:51:00,
2013-09-10 21:56:00,79.5,66.3,29.96,SSE,153,1.0,6.0,64,0.00,,---,0.10,0.00,VWS V14.01,2013-09-11 02:56:00,
2013-09-10 22:01:00,79.6,66.4,29.96,SSE,161,2.0,6.0,64,0.00,,---,0.10,0.00,VWS V14.01,2013-09-11 03:01:00,
2013-09-10 22:06:00,79.7,66.5,29.96,SSE,157,0.0,3.0,64,0.00,,---,0.10,0.00,VWS V14.01,2013-09-11 03:06:00,
2013-09-10 22:11:00,79.7,66.5,29.96,SE,140,1.0,5.0,64,0.00,,---,0.10,0.00,VWS V14.01,2013-09-11 03:11:00,
2013-09-10 22:16:00,79.5,65.8,29.97,SSE,159,5.0,9.0,63,0.00,,---,0.10,0.00,VWS V14.01,2013-09-11 03:16:00,
2013-09-10 22:21:00,79.9,65.7,29.97,SSE,161,3.0,9.0,62,0.00,,---,0.10,0.00,VWS V14.01,2013-09-11 03:21:00,
2013-09-10 22:26:00,80.2,65.1,29.97,SSE,161,4.0,10.0,60,0.00,,---,0.10,0.00,VWS V14.01,2013-09-11 03:26:00,
2013-09-10 22:31:00,80.7,65.1,29.97,SSE,156,2.0,10.0,59,0.00,,---,0.10,0.00,VWS V14.01,2013-09-11 03:31:00,
2013-09-10 22:36:00,80.9,65.2,29.97,SSE,161,3.0,5.0,59,0.00,,---,0.10,0.00,VWS V14.01,2013-09-11 03:36:00,
2013-09-10 22:41:00,80.7,65.1,29.97,SE,130,3.0,6.0,59,0.00,,---,0.10,0.00,VWS V14.01,2013-09-11 03:41:00,
2013-09-10 22:46:00,80.7,65.1,29.97,SSE,157,4.0,10.0,59,0.00,,---,0.10,0.00,VWS V14.01,2013-09-11 03:46:00,
2013-09-10 22:51:00,80.7,65.5,29.97,SSE,152,4.0,10.0,60,0.00,,---,0.10,0.00,VWS V14.01,2013-09-11 03:51:00,
2013-09-10 22:56:00,80.7,65.1,29.97,SSE,163,4.0,10.0,59,0.00,,---,0.10,0.00,VWS V14.01,2013-09-11 03:56:00,
2013-09-10 23:01:00,80.7,65.1,29.97,SSE,162,4.0,10.0,59,0.00,,---,0.10,0.00,VWS V14.01,2013-09-11 04:01:00,
2013-09-10 23:02:00,80.6,65.4,29.97,SSE,148,3.0,10.0,60,0.00,,---,0.10,0.00,VWS V14.01,2013-09-11 04:02:00,
2013-09-10 23:07:00,80.5,65.3,29.97,SE,132,2.0,4.0,60,0.00,,---,0.10,0.00,VWS V14.01,2013-09-11 04:07:00,
2013-09-10 23:12:00,80.1,65.4,29.97,SE,132,2.0,6.0,61,0.00,,---,0.10,0.00,VWS V14.01,2013-09-11 04:12:00,
2013-09-10 23:17:00,79.9,65.7,29.97,SSE,158,1.0,6.0,62,0.00,,---,0.10,0.00,VWS V14.01,2013-09-11 04:17:00,
2013-09-10 23:22:00,79.6,65.4,29.97,SE,134,2.0,6.0,62,0.00,,---,0.10,0.00,VWS V14.01,2013-09-11 04:22:00,
2013-09-10 23:27:00,79.3,65.6,29.97,SSE,161,2.0,6.0,63,0.00,,---,0.10,0.00,VWS V14.01,2013-09-11 04:27:00,
2013-09-10 23:32:00,79.0,65.8,29.97,SE,140,3.0,6.0,64,0.00,,---,0.10,0.00,VWS V14.01,2013-09-11 04:32:00,
2013-09-10 23:37:00,78.9,65.7,29.98,SE,146,3.0,7.0,64,0.00,,---,0.10,0.00,VWS V14.01,2013-09-11 04:37:00,
2013-09-10 23:42:00,78.8,65.6,29.98,SSE,165,2.0,7.0,64,0.00,,---,0.10,0.00,VWS V14.01,2013-09-11 04:42:00,
2013-09-10 23:47:00,78.7,66.0,29.97,SSE,165,3.0,8.0,65,0.00,,---,0.10,0.00,VWS V14.01,2013-09-11 04:47:00,
2013-09-10 23:52:00,78.6,65.9,29.97,SSE,153,3.0,8.0,65,0.00,,---,0.10,0.00,VWS V14.01,2013-09-11 04:52:00,
2013-09-10 23:57:00,78.6,65.9,29.97,SSE,163,7.0,8.0,65,0.00,,---,0.10,0.00,VWS V14.01,2013-09-11 04:57:00,